Weather History for KBNO - November, 2012

Change the Weather History Date:

Saturday, November 24, 2012

  Actual Average Record
Temperature  
Mean Temperature 39 °F 30 °F  
Max Temperature 47 °F 40 °F 67 °F (1959)
Min Temperature 30 °F 19 °F -12 °F (1993)
Degree Days  
Heating Degree Days 26 35  
Month to date heating degree days 660 731  
Since 1 July heating degree days 1485 1781  
Cooling Degree Days 0 0  
Month to date cooling degree days 0 0  
Year to date cooling degree days 309 215  
Moisture  
Dew Point 38 °F    
Average Humidity 87    
Maximum Humidity 100    
Minimum Humidity 73    
Precipitation  
Precipitation 0.17 in 0.04 in 0.35 in (1964)
Month to date precipitation 0.96 0.91  
Year to date precipitation 8.16 9.11  
Sea Level Pressure  
Sea Level Pressure 30.14 in    
Wind  
Wind Speed 2 mph (SSE)    
Max Wind Speed 8 mph    
Max Gust Speed 10 mph    
Visibility 8 miles    
Events Rain    
T = Trace of Precipitation, MM = Missing Value Source: NWS Daily Summary

Daily Weather History Graph

Daily Weather History Graph

Search for Another Location

Airport or City:

Trip Planner

Search our weather history database for the weather conditions in past years. The results will help you decide how hot, cold, wet, or windy it might be!

Date:

Astronomy

Nov. 24, 2012 Rise Set
Actual Time 7:01 AM PST 4:23 PM PST
Civil Twilight 6:30 AM PST 4:55 PM PST
Nautical Twilight 5:54 AM PST 5:30 PM PST
Astronomical Twilight 5:20 AM PST 6:04 PM PST
Moon 2:15 PM PST (11/24) 3:18 AM PST (11/24)
Length of Visible Light 10h 24m
Length of Day
9h 21m
Waxing Gibbous, 88% of the Moon is Illuminated
Nov 24
Waxing Gibbous
Nov 28
Full
Dec 6
Last Quarter
Dec 13
New
Dec 19
First Quarter

Hourly Weather History & Observations

Time (PST) Temp. Windchill Dew Point Humidity Pressure Visibility Wind Dir Wind Speed Gust Speed Precip Events Conditions
12:53 AM 32.0 °F - 30.0 °F 92% 30.26 in 10.0 mi Calm Calm - N/A   Overcast
1:53 AM 30.9 °F - 28.9 °F 92% 30.26 in 10.0 mi Calm Calm - N/A   Overcast
2:53 AM 32.0 °F - 30.0 °F 92% 30.25 in 10.0 mi Calm Calm - N/A   Overcast
3:53 AM 34.0 °F - 30.9 °F 89% 30.24 in 10.0 mi Calm Calm - N/A   Overcast
4:53 AM 35.1 °F - 32.0 °F 89% 30.24 in 10.0 mi Calm Calm - N/A   Overcast
5:53 AM 35.1 °F - 32.0 °F 89% 30.25 in 10.0 mi Calm Calm - N/A   Overcast
6:40 AM 35.6 °F - 32.0 °F 87% 30.20 in 10.0 mi Calm Calm - N/A   Overcast
6:53 AM 35.1 °F - 32.0 °F 89% 30.26 in 10.0 mi Calm Calm - N/A   Overcast
7:29 AM 35.6 °F - 32.0 °F 87% 30.21 in 10.0 mi Calm Calm - N/A   Overcast
7:38 AM 35.6 °F - 32.0 °F 87% 30.22 in 10.0 mi Calm Calm - N/A   Overcast
7:53 AM 35.1 °F 32.2 °F 32.0 °F 89% 30.27 in 10.0 mi East 3.5 mph - N/A   Overcast
8:07 AM 35.6 °F 32.8 °F 32.0 °F 87% 30.22 in 10.0 mi East 3.5 mph - N/A   Scattered Clouds
8:53 AM 37.9 °F - 32.0 °F 79% 30.27 in 10.0 mi Calm Calm - N/A   Overcast
9:53 AM 41.0 °F - 34.0 °F 76% 30.27 in 10.0 mi Calm Calm - N/A   Partly Cloudy
10:53 AM 46.0 °F 44.8 °F 39.0 °F 76% 30.25 in 10.0 mi East 3.5 mph - N/A   Overcast
11:53 AM 46.9 °F - 41.0 °F 80% 30.21 in 10.0 mi SSE 5.8 mph - N/A   Overcast
12:21 PM 46.4 °F 42.9 °F 41.0 °F 81% 30.18 in 10.0 mi SSE 6.9 mph - N/A   Overcast
12:53 PM 46.9 °F - 41.0 °F 80% 30.19 in 10.0 mi SSE 6.9 mph - N/A   Overcast
1:33 PM 46.4 °F 44.3 °F 39.2 °F 76% 30.15 in 10.0 mi SSE 4.6 mph - N/A   Overcast
1:53 PM 46.9 °F - 41.0 °F 80% 30.18 in 10.0 mi SSE 4.6 mph - N/A   Overcast
2:53 PM 46.9 °F - 41.0 °F 80% 30.15 in 10.0 mi Calm Calm - 0.00 in Rain Light Rain
3:53 PM 46.0 °F - 42.1 °F 86% 30.14 in 10.0 mi Calm Calm - 0.00 in Rain Light Rain
4:09 PM 44.6 °F 43.1 °F 42.8 °F 93% 30.11 in 10.0 mi NE 3.5 mph - 0.00 in Rain Light Rain
4:53 PM 44.1 °F 42.5 °F 42.1 °F 93% 30.12 in 10.0 mi North 3.5 mph - 0.00 in Rain Light Rain
5:17 PM 44.6 °F 43.1 °F 42.8 °F 93% 30.08 in 10.0 mi NNE 3.5 mph - 0.00 in Rain Light Rain
5:44 PM 44.6 °F - 42.8 °F 93% 30.07 in 10.0 mi Calm Calm - 0.01 in Rain Light Rain
5:53 PM 43.0 °F 41.3 °F 42.1 °F 97% 30.10 in 10.0 mi NNW 3.5 mph - 0.01 in Rain Light Rain
6:39 PM 42.8 °F - 42.8 °F 100% 30.07 in 5.0 mi Calm Calm - 0.03 in Rain Light Rain
6:53 PM 43.0 °F - 42.1 °F 97% 30.09 in 3.0 mi Calm Calm - 0.04 in Rain Light Rain
7:09 PM 42.8 °F - 42.8 °F 100% 30.06 in 4.0 mi Calm Calm - 0.01 in Rain Light Rain
7:30 PM 42.8 °F - 42.8 °F 100% 30.06 in 2.5 mi Calm Calm - 0.03 in Rain Rain
7:36 PM 42.8 °F - 42.8 °F 100% 30.06 in 3.0 mi Calm Calm - 0.04 in Rain Light Rain
7:48 PM 42.8 °F - 42.8 °F 100% 30.06 in 4.0 mi Calm Calm - 0.05 in Rain Light Rain
7:53 PM 43.0 °F - 42.1 °F 97% 30.09 in 4.0 mi Calm Calm - 0.05 in Rain Light Rain
7:59 PM 42.8 °F - 42.8 °F 100% 30.05 in 5.0 mi Calm Calm - 0.01 in Rain Light Rain
8:35 PM 42.8 °F - 41.0 °F 93% 30.05 in 4.0 mi Calm Calm - 0.02 in Rain Light Rain
8:53 PM 42.1 °F - 41.0 °F 96% 30.07 in 2.5 mi Calm Calm - 0.03 in Rain Light Rain
9:01 PM 42.8 °F - 41.0 °F 93% 30.05 in 1.2 mi Calm Calm - 0.00 in Rain Light Rain
9:17 PM 42.8 °F 41.1 °F 41.0 °F 93% 30.05 in 1.5 mi WSW 3.5 mph - 0.01 in Rain Light Rain
9:26 PM 42.8 °F - 41.0 °F 93% 30.05 in 1.2 mi Calm Calm - 0.01 in Rain Light Rain
9:43 PM 42.8 °F - 41.0 °F 93% 30.05 in 1.8 mi Calm Calm - 0.02 in Rain Light Rain
9:53 PM 42.1 °F - 41.0 °F 96% 30.07 in 2.0 mi Calm Calm - 0.02 in Rain Light Rain
9:59 PM 42.8 °F - 41.0 °F 93% 30.05 in 1.2 mi Calm Calm - 0.00 in Rain Light Rain
10:21 PM 42.8 °F 40.1 °F 41.0 °F 93% 30.05 in 2.0 mi WSW 4.6 mph - 0.00 in Rain Light Rain
10:28 PM 42.8 °F 39.3 °F 41.0 °F 93% 30.05 in 8.0 mi West 5.8 mph - 0.00 in Rain Light Rain
10:44 PM 42.8 °F 38.6 °F 39.2 °F 87% 30.05 in 10.0 mi WNW 6.9 mph - 0.01 in Rain Light Rain
10:53 PM 42.1 °F 37.7 °F 39.9 °F 92% 30.06 in 10.0 mi West 6.9 mph - 0.01 in Rain Light Rain
11:53 PM 39.9 °F 34.5 °F 39.0 °F 97% 30.06 in 10.0 mi WSW 8.1 mph - 0.01 in   Overcast